Hourly Data Report for October 12, 2017

All times are specified in Local Standard Time (LST). Add 1 hour to adjust for Daylight Saving Time where and when it is observed.

SATURNA ISLAND CS
BRITISH COLUMBIA

48°47'02.067" N
123°02'41.082" W
24.40 m
1017101
71473
WEZ

Download Data

Hourly Data (October 2017)
Hourly Data Report for October 12, 2017
Temp Definition
°C
Dew Point Temp Definition
°C
Rel Hum Definition
%
Wind Dir Definition
10's deg

Wind Spd Definition
km/h
Visibility Definition
km
Stn Press Definition
kPa
Hmdx Definition


Wind Chill Definition


Weather Definition


TIME
00:00 9.1 6.2 82 18 27   101.40     LegendNANA
01:00 9.0 6.0 82 17 26   101.38     LegendNANA
02:00 9.2 6.2 81 18 27   101.36     LegendNANA
03:00 9.1 6.1 81 18 26   101.34     LegendNANA
04:00 9.0 6.4 84 18 21   101.34     LegendNANA
05:00 9.0 6.6 85 18 23   101.34     LegendNANA
06:00 8.9 6.6 85 18 29   101.34     LegendNANA
07:00 9.0 6.7 85 19 28   101.35     LegendNANA
08:00 8.7 6.8 88 17 28   101.35     LegendNANA
09:00 8.8 6.5 86 17 28   101.35     LegendNANA
10:00 9.2 6.8 85 16 21   101.35     LegendNANA
11:00 9.6 7.0 84 16 20   101.36     LegendNANA
12:00 10.2 6.7 79 16 18   101.32     LegendNANA
13:00 10.6 7.2 80 13 17   101.29     LegendNANA
14:00 10.2 6.5 78 15 21   101.27     LegendNANA
15:00 10.7 6.8 77 16 16   101.25     LegendNANA
16:00 10.2 6.5 78 16 16   101.24     LegendNANA
17:00 9.9 6.6 80 18 19   101.24     LegendNANA
18:00 9.4 6.0 80 19 21   101.24     LegendNANA
19:00 8.7 5.8 82 20 18   101.24     LegendNANA
20:00 8.9 6.3 84 19 18   101.28     LegendNANA
21:00 8.1 6.0 87 19 15   101.26     LegendNANA
22:00 8.1 6.3 89 24 7   101.28     LegendNANA
23:00 8.2 6.2 87 34 8   101.30     LegendNANA

Notes on Data Quality.

Legend

  • E = Estimated
  • M = Missing
  • NA = Not Available
  • ‡ = Partner data that is not subject to review by the National Climate Archives
Date modified: